When you browse on this site, cookies collect data to enhance your experience and personalize the content and advertising you see.
Visit our Privacy Policy to learn more. By continuing to use the site, you agree to this use of cookies and data.
  • In Hungary
  • List of Countries
  • For 7 days
  • Water Temperature
  • Satellite Maps
  • Weather Map
  • News
  • Weather Widgets
  • user-avatar
    Login

    Hourly Weather Londrina

    Today, 19 January, Saturday

    Time Temperature Precipitation Wind Pressure Humidity
    00:00 +22°C° 1.4 mm 0 mps 709 mmHg 89%
    01:00 +21°C° 0 mm 0 mps 709 mmHg 90%
    02:00 +21°C° 0 mm 0 mps 709 mmHg 92%
    03:00 +23°C° 0 mm 1 mps 708 mmHg 93%
    04:00 +20°C° 0 mm 0 mps 708 mmHg 94%
    05:00 +20°C° 0 mm 0 mps 708 mmHg 94%
    06:00 +20°C° 0 mm 0 mps 708 mmHg 94%
    07:00 +22°C° 0 mm 0 mps 709 mmHg 89%
    08:00 +24°C° 0 mm 0 mps 710 mmHg 84%
    09:00 +26°C° 0 mm 0 mps 710 mmHg 78%
    10:00 +29°C° 0.3 mm 1 mps 710 mmHg 72%
    11:00 +31°C° 0.3 mm 1 mps 710 mmHg 65%
    12:00 +32°C° 0.3 mm 1 mps 710 mmHg 59%
    13:00 +32°C° 0.7 mm 2 mps 710 mmHg 61%
    14:00 +32°C° 0.7 mm 2 mps 709 mmHg 62%
    15:00 +32°C° 0.7 mm 2 mps 709 mmHg 64%
    16:00 +31°C° 0.5 mm 1 mps 709 mmHg 68%
    17:00 +31°C° 0.5 mm 1 mps 709 mmHg 72%
    18:00 +30°C° 0.5 mm 1 mps 708 mmHg 76%
    19:00 +28°C° 0.3 mm 1 mps 708 mmHg 80%
    20:00 +27°C° 0.3 mm 1 mps 709 mmHg 85%
    21:00 +25°C° 0.3 mm 1 mps 709 mmHg 89%
    22:00 +25°C° 0 mm 1 mps 709 mmHg 90%
    23:00 +24°C° 0 mm 1 mps 709 mmHg 91%

    Tomorrow, 20 January, Sunday

    Time Temperature Precipitation Wind Pressure Humidity
    00:00 +24°C° 0 mm 1 mps 709 mmHg 92%
    01:00 +24°C° 0 mm 1 mps 708 mmHg 92%
    02:00 +24°C° 0 mm 1 mps 708 mmHg 92%
    03:00 +23°C° 0 mm 1 mps 708 mmHg 92%
    04:00 +23°C° 0 mm 1 mps 708 mmHg 93%
    05:00 +23°C° 0 mm 1 mps 708 mmHg 94%
    06:00 +23°C° 0 mm 1 mps 708 mmHg 95%
    07:00 +24°C° 0 mm 2 mps 709 mmHg 90%
    08:00 +26°C° 0 mm 2 mps 710 mmHg 85%
    09:00 +28°C° 0 mm 2 mps 710 mmHg 80%
    10:00 +29°C° 0.6 mm 3 mps 710 mmHg 76%
    11:00 +30°C° 0.6 mm 3 mps 710 mmHg 72%
    12:00 +31°C° 0.6 mm 3 mps 710 mmHg 68%
    13:00 +31°C° 0.7 mm 3 mps 710 mmHg 68%
    14:00 +31°C° 0.7 mm 3 mps 709 mmHg 67%
    15:00 +33°C° 0.7 mm 3 mps 709 mmHg 67%
    16:00 +31°C° 0.6 mm 3 mps 708 mmHg 72%
    17:00 +29°C° 0.6 mm 2 mps 708 mmHg 78%
    18:00 +28°C° 0.6 mm 2 mps 708 mmHg 84%
    19:00 +27°C° 0.1 mm 1 mps 708 mmHg 85%
    20:00 +26°C° 0.1 mm 1 mps 708 mmHg 87%
    21:00 +23°C° 0.1 mm 0 mps 709 mmHg 89%
    22:00 +23°C° 0.8 mm 0 mps 709 mmHg 89%
    23:00 +23°C° 0.8 mm 0 mps 709 mmHg 89%

    Day after tomorrow, 21 January, Monday

    Time Temperature Precipitation Wind Pressure Humidity
    00:00 +22°C° 0.8 mm 0 mps 709 mmHg 89%
    01:00 +22°C° 0.5 mm 0 mps 709 mmHg 91%
    02:00 +24°C° 0.5 mm 1 mps 709 mmHg 92%
    03:00 +24°C° 0.5 mm 1 mps 708 mmHg 93%
    04:00 +23°C° 0.1 mm 1 mps 708 mmHg 94%
    05:00 +23°C° 0.1 mm 1 mps 709 mmHg 94%
    06:00 +23°C° 0.1 mm 1 mps 709 mmHg 94%
    07:00 +25°C° 0.2 mm 1 mps 710 mmHg 89%
    08:00 +27°C° 0.2 mm 2 mps 710 mmHg 85%
    09:00 +28°C° 0.2 mm 2 mps 711 mmHg 80%
    10:00 +29°C° 1.2 mm 2 mps 711 mmHg 77%
    11:00 +30°C° 1.2 mm 2 mps 711 mmHg 74%
    12:00 +31°C° 1.2 mm 3 mps 711 mmHg 72%
    13:00 +31°C° 1.1 mm 3 mps 711 mmHg 71%
    14:00 +31°C° 1.1 mm 3 mps 710 mmHg 70%
    15:00 +31°C° 1.1 mm 3 mps 710 mmHg 70%
    16:00 +31°C° 1 mm 2 mps 710 mmHg 73%
    17:00 +30°C° 1 mm 2 mps 710 mmHg 76%
    18:00 +30°C° 1 mm 1 mps 709 mmHg 78%
    19:00 +28°C° 0.1 mm 1 mps 710 mmHg 82%
    20:00 +25°C° 0.1 mm 0 mps 710 mmHg 85%
    21:00 +23°C° 0.1 mm 0 mps 710 mmHg 89%
    22:00 +23°C° 0 mm 0 mps 710 mmHg 89%
    23:00 +25°C° 0 mm 1 mps 710 mmHg 89%

    22 January, Tuesday

    Time Temperature Precipitation Wind Pressure Humidity
    00:00 +25°C° 0 mm 1 mps 710 mmHg 90%
    01:00 +24°C° 0 mm 1 mps 710 mmHg 91%
    02:00 +24°C° 0 mm 1 mps 710 mmHg 92%
    03:00 +24°C° 0 mm 1 mps 709 mmHg 93%
    04:00 +23°C° 0 mm 1 mps 709 mmHg 93%
    05:00 +23°C° 0 mm 1 mps 710 mmHg 93%
    06:00 +23°C° 0 mm 1 mps 710 mmHg 94%
    07:00 +25°C° 0 mm 1 mps 710 mmHg 88%
    08:00 +27°C° 0 mm 1 mps 711 mmHg 82%
    09:00 +29°C° 0 mm 1 mps 712 mmHg 76%
    10:00 +30°C° 0.7 mm 2 mps 712 mmHg 72%
    11:00 +31°C° 0.7 mm 2 mps 711 mmHg 68%
    12:00 +34°C° 0.7 mm 2 mps 711 mmHg 63%
    13:00 +32°C° 1.4 mm 2 mps 711 mmHg 64%
    14:00 +32°C° 1.4 mm 2 mps 710 mmHg 65%
    15:00 +32°C° 1.4 mm 2 mps 710 mmHg 65%
    16:00 +31°C° 0.6 mm 2 mps 710 mmHg 70%
    17:00 +31°C° 0.6 mm 1 mps 710 mmHg 75%
    18:00 +30°C° 0.6 mm 1 mps 709 mmHg 80%
    19:00 +29°C° 0 mm 1 mps 710 mmHg 82%
    20:00 +25°C° 0 mm 0 mps 710 mmHg 84%
    21:00 +24°C° 0 mm 0 mps 710 mmHg 86%
    22:00 +24°C° 0 mm 0 mps 710 mmHg 87%
    23:00 +25°C° 0 mm 1 mps 710 mmHg 89%

    23 January, Wednesday

    Time Temperature Precipitation Wind Pressure Humidity
    00:00 +25°C° 0 mm 1 mps 710 mmHg 90%
    01:00 +25°C° 0 mm 1 mps 710 mmHg 90%
    02:00 +24°C° 0 mm 1 mps 710 mmHg 90%
    03:00 +24°C° 0 mm 1 mps 709 mmHg 91%
    04:00 +24°C° 0 mm 1 mps 709 mmHg 92%
    05:00 +23°C° 0 mm 1 mps 709 mmHg 92%
    06:00 +23°C° 0 mm 1 mps 710 mmHg 93%
    07:00 +25°C° 0 mm 1 mps 710 mmHg 86%
    08:00 +27°C° 0 mm 1 mps 711 mmHg 79%
    09:00 +29°C° 0 mm 1 mps 712 mmHg 73%
    10:00 +31°C° 0.2 mm 1 mps 712 mmHg 67%
    11:00 +32°C° 0.2 mm 1 mps 711 mmHg 62%
    12:00 +34°C° 0.2 mm 1 mps 711 mmHg 57%
    13:00 +35°C° 0.7 mm 2 mps 711 mmHg 59%
    14:00 +34°C° 0.7 mm 2 mps 710 mmHg 62%
    15:00 +34°C° 0.7 mm 2 mps 710 mmHg 64%
    16:00 +31°C° 1.8 mm 2 mps 710 mmHg 73%
    17:00 +30°C° 1.8 mm 1 mps 710 mmHg 81%
    18:00 +28°C° 1.8 mm 1 mps 710 mmHg 90%
    19:00 +27°C° 0 mm 1 mps 710 mmHg 91%
    20:00 +26°C° 0 mm 1 mps 710 mmHg 91%
    21:00 +25°C° 0 mm 1 mps 709 mmHg 92%
    22:00 +25°C° 0 mm 1 mps 710 mmHg 93%
    23:00 +25°C° 0 mm 1 mps 710 mmHg 93%

    24 January, Thursday

    Time Temperature Precipitation Wind Pressure Humidity
    00:00 +25°C° 0 mm 1 mps 710 mmHg 94%
    01:00 +24°C° 0 mm 1 mps 709 mmHg 94%
    02:00 +24°C° 0 mm 1 mps 709 mmHg 93%
    03:00 +24°C° 0 mm 1 mps 708 mmHg 93%
    04:00 +24°C° 0 mm 1 mps 708 mmHg 94%
    05:00 +23°C° 0 mm 1 mps 709 mmHg 95%
    06:00 +23°C° 0 mm 1 mps 709 mmHg 96%
    07:00 +25°C° 0 mm 1 mps 709 mmHg 90%
    08:00 +27°C° 0 mm 1 mps 710 mmHg 84%
    09:00 +29°C° 0 mm 1 mps 711 mmHg 78%
    10:00 +30°C° 0.1 mm 1 mps 711 mmHg 71%
    11:00 +32°C° 0.1 mm 1 mps 711 mmHg 64%
    12:00 +34°C° 0.1 mm 1 mps 710 mmHg 57%
    13:00 +33°C° 3.2 mm 1 mps 710 mmHg 65%
    14:00 +31°C° 3.2 mm 2 mps 709 mmHg 72%
    15:00 +30°C° 3.2 mm 2 mps 709 mmHg 80%
    16:00 +30°C° 1.1 mm 1 mps 708 mmHg 83%
    17:00 +29°C° 1.1 mm 1 mps 708 mmHg 86%
    18:00 +26°C° 1.1 mm 0 mps 708 mmHg 90%
    19:00 +27°C° 0 mm 1 mps 708 mmHg 90%
    20:00 +26°C° 0 mm 1 mps 709 mmHg 91%
    21:00 +25°C° 0 mm 2 mps 709 mmHg 92%
    22:00 +24°C° 0.3 mm 2 mps 709 mmHg 93%
    23:00 +24°C° 0.3 mm 2 mps 709 mmHg 95%
    Show more